User: anonymous   Login
Location: Home
(42.5358°N, 72.7383°W)
Time: 16:28:30
(UTC-05:00)
Language:

PCSat - Orbit

View from above orbital plane
View from above orbital plane
View from above satellite
View from above satellite

Ground track
Ground track

The orbit data is extracted from the following two-line orbital elements,

1 26931U 01043C   22021.57597981  .00000038  00000-0  46235-4 0  9992
2 26931  67.0514  77.4965 0006953 280.3762  79.6556 14.30656142 60393
Epoch (UTC): 21 January 2022 13:49:24
Eccentricity: 0.0006953
inclination: 67.0514°
perigee height: 784 km
apogee height: 794 km
right ascension of ascending node: 77.4965°
argument of perigee: 280.3762°
revolutions per day: 14.30656142
mean anomaly at epoch: 79.6556°
orbit number at epoch: 6039

The dashed part of the orbit path shows where the satellite is in the earth's shadow,  

DLR